Showing default

CUAVA-2, 60527

Orbit data source: Space-Track

CUAVA-2, 60527 is an Australian payload satellite in SSO that was launched on Fri, 16 Aug 2024 UTC via an FALCON 9 launch vehicle from the Air Force Western Test Range (AFWTR). Payload-class satellites include a variety of spacecraft equipped with specific instruments for various scientific and technological missions. These include communications satellites like Starlink; space stations such as the ISS; scientific satellites like the Hubble; Earth observation satellites from companies like Planet Labs, Umbra, and HawkEye 360; GPS; miniature CubeSats for education and research; and military/defense satellites.

Loading next visibility...
Identifier
60527, 2024-149BM
Orbit
SSO
Country
Flag of AUAU / AUS
Related business
Manufacturer
USYD/UNSW
Mission
Operational Amateur Technology
Bus & Motor
CUBESAT 6U, Unknown motor
Mass
10 kg wet, 10 kg dry
Launch date (UTC)
2024-08-16 (1 year ago)
Launch vehicle
FALCON 9
Launch site
Air Force Western Test Range (AFWTR)
Object type
Payload
Rocket body
Debris
Shape & HBR
Box, 0.1 m
Radar Cross Section
0.080 m², Medium (>0.1 m² and < 1m²)

Expand to show TLE details & history
Last TLE update: 7 hours ago

TLE from 7 hours ago
0 CUAVA-2
1 60527U 24149BM  25291.15118422  .00017497  00000-0  62218-3 0  9993
2 60527  97.3971   8.1679 0008984  80.5025 279.7230 15.29014396 65098
Epoch: 2025-10-18T03:37Z
TLE epoch observation values (Epoch: 2025-10-18T03:37:42.316Z)
Latitude
-0.00003°
Longitude
-73.14473°
Altitude
480.825 km
Speed
7.626 km/s
True Right ascension
00h 32m 40s
True Declination
0° 00' 00"
Sunlit
Object was in full shadow at epoch
Visualization orbit readout
Latitude
Unknown
Longitude
Unknown
Altitude
Unknown
Speed
Unknown
Apparent Right ascension
Unknown
Apparent Declination
Unknown
Sunlit
N/A
Visualization observer readout
Local Sidereal Time
05:49:36
Azimuth
Unknown
Elevation
Unknown
Doppler factor
Unknown
Orbital elements
Apogee altitude
481.868 km
Perigee altitude
469.553 km
Semi-major axis
6,853.848 km
Eccentricity
0.0009
Inclination
97.3971°
RAAN
8.1679°
Arg. of periapsis
80.5025°
True anomaly
279.62151°
Mean anomaly
279.723°
Eccentric anomaly
279.67226°
Mean motion
3.82509 °/min
Orbital period
94.12 mins
BSTAR
0.00062218
Loading maneuver chart data...
Computing Atmospheric mass density...
Loading historical data...
Loading historical data...
Loading historical data...
Loading historical data...
Loading historical data...
Loading historical data...
Loading historical data...

Documentation

Showing up to 5 results
|